FENGYUN 1C DEB

Satellite information

Favourite Embed

Satellite Type and Status

DEBRISIN ORBIT

Key statistics

Satellite FENGYUN 1C DEB at a glance.

Uptime

9619

Days in orbit

Revolutions

≈ 14.2

Per day

Orbit

SSO

Sun Synchronous Orbit

Inclination

98.6

Latest

Satellite identification and parameters

Extended collection of information and parameters for FENGYUN 1C DEB.

Object identification

Identified? True

Debris? True

Object name: FENGYUN 1C DEB

International designator: 1999-025DHK

Object number (NORAD): 33722

Object ID (CCSDS): 33722

Country: PEOPLES REPUBLIC OF CHINA (PRC)

Current information (Y/N): Y

RCS size: SMALL

Orbital parameters

Period: 101.345 minutes

Inclination: 98.5823 deg

SMA: 7200.482 km

Apoapsis: 937.636 km

Periapsis: 707.058 km

RAAN: 267.8242 deg

Eccentricy: 0.01601131

Argument of periapsis: 169.4994 deg

Mean anomaly: 190.9593 deg

Mean motion: 14.20889932 rev/day

Mean motion (dot): 0.00001496 rev/day2

B* drag term: 0.00062500404 1/REarth

Two-line elements (TLE)

Creation date: Sept. 8, 2025, 3:16 a.m.

Reference frame: TEME

Reference center: EARTH

Epoch: Sept. 7, 2025, 6:06 p.m. UTC

TLE line 0: 0 FENGYUN 1C DEB

TLE line 1: 1 33722U 99025DHK 25250.75418866 .00001496 00000-0 62500-3 0 9997

TLE line 2: 2 33722 98.5823 267.8242 0160113 169.4994 190.9593 14.20889932907849

Live tracking on map

Real-time ground track for satellite FENGYUN 1C DEB.

In-orbit conjunctions

A list of the most updated potential collisions computed for object FENGYUN 1C DEB.

Target Orbit TCA Probability of collision Miss distance Type
OBJECT D LEO 2025-07-10 05:14:44 0.0001055375 284.0 (m) UNKNOWN
SL-14 DEB LEO 2025-03-27 01:37:07 0.0001768242 78.0 (m) DEBRIS
SL-8 R/B LEO 2024-06-03 07:53:30 0.0001601165 210.0 (m) ROCKET BODY

Associated space launch

Chinese polar orbiting meteorological satellite

FENGYUN 1C DEB was lifted into orbit during the mission ‘Long March 4B | Feng Yun 1C’, on board a Long March 4B space rocket.

The launch took place on May 10, 1999, 1:33 a.m. from Launch Complex 7.

For more information about the launch, click the button.

Launch to space Long March 4B | Feng Yun 1C
Long March 4B | Feng Yun 1C

Agency: N/A

Status: Launch Successful

Launch date: May 10, 1999, 1:33 a.m. UTC

Rocket: Long March 4B

Launch pad: Launch Complex 7

Location: Taiyuan Satellite Launch Center, People's Republic of China

...

Latest news about this satellite

There are no fresh news available about this satellite. Check back as we update our databases every day.


Newsletter sign-up

Weekly statistics, charts and insights to help you stay on top of the space industry.